Вернуться в каталог

STARLINK-37035

АктивенСвязьVLEO
NORAD 68180·PAYLOAD·🇺🇸 United States

Запущен Mar 14, 2026 с Vandenberg Space Force Base

Loading…

Ближайшие Пролёты (ближайшие 24 часа)

TLE

СвежийSource: CelesTrak SupGP

Эпоха: Sep 14, 2026, 15:45 UTC

1 68180C 26050P   26257.65673611 -.00009633  00000+0 -28457-3 0  2571
2 68180  53.1568 104.9949 0001314  96.3416 189.2296 15.34398580    11

Отслеживайте STARLINK-37035 в реальном времени с AllMySat

Download on the App Store